,,,PA_Meas_PMT16A,,PR_Meas_QMR101_102,,RH_Meas_QMH101,,SR_Meas_QMS101,,TA_Meas_QMH101,,GenWind,,GenWind,
date,time,status,PA,status,PR,status,RH,status,SR,status,TA,status,DirAvg,status,SpdAvg,
2012-09-19, 00:00:04,VALID,1010.54,VALID,0,VALID,103.542,VALID,0.112112,VALID,24.3566,VALID,32,VALID,0.0621094,
2012-09-19, 00:01:04,VALID,1010.51,VALID,0,VALID,103.588,VALID,0.112112,VALID,24.3566,VALID,32,VALID,0,
2012-09-19, 00:02:05,VALID,1010.47,VALID,0,VALID,103.55,VALID,0.112112,VALID,24.3566,VALID,34,VALID,0.713281,
2012-09-19, 00:03:05,VALID,1010.46,VALID,0,VALID,103.535,VALID,0,VALID,24.3761,VALID,34,VALID,0.114453,
2012-09-19, 00:04:05,VALID,1010.45,VALID,0,VALID,103.527,VALID,0,VALID,24.3352,VALID,34,VALID,0.158984,
2012-09-19, 00:05:05,VALID,1010.47,VALID,0,VALID,103.527,VALID,0,VALID,24.3761,VALID,34,VALID,0.0632813,
2012-09-19, 00:06:05,VALID,1010.44,VALID,0,VALID,103.581,VALID,0.112112,VALID,24.3547,VALID,34,VALID,0.04375,
2012-09-19, 00:07:05,VALID,1010.46,VALID,0,VALID,103.573,VALID,0,VALID,24.3761,VALID,34,VALID,0,
2012-09-19, 00:08:05,VALID,1010.47,VALID,0,VALID,103.596,VALID,0,VALID,24.3956,VALID,34,VALID,0,
2012-09-19, 00:09:05,VALID,1010.48,VALID,0,VALID,103.695,VALID,0,VALID,24.3742,VALID,34,VALID,0,
2012-09-19, 00:10:05,VALID,1010.46,VALID,0,VALID,103.626,VALID,0,VALID,24.3956,VALID,34,VALID,0,
2012-09-19, 00:11:05,VALID,1010.47,VALID,0,VALID,103.52,VALID,0,VALID,24.3742,VALID,34,VALID,0.254297,
2012-09-19, 00:12:05,VALID,1010.43,VALID,0,VALID,103.527,VALID,0.112112,VALID,24.3742,VALID,34,VALID,0.450781,
2012-09-19, 00:13:05,VALID,1010.41,VALID,0,VALID,103.459,VALID,0,VALID,24.3547,VALID,34,VALID,0.485156,
2012-09-19, 00:14:05,VALID,1010.38,VALID,0,VALID,103.558,VALID,0.112112,VALID,24.3352,VALID,34,VALID,0.305078,
2012-09-19, 00:15:05,VALID,1010.39,VALID,0,VALID,103.703,VALID,0.112112,VALID,24.3158,VALID,34,VALID,0.125781,
2012-09-19, 00:16:05,VALID,1010.39,VALID,0,VALID,103.764,VALID,0.112112,VALID,24.2963,VALID,34,VALID,0.3125,
2012-09-19, 00:17:05,VALID,1010.37,VALID,0,VALID,103.916,VALID,0.112112,VALID,24.2573,VALID,34,VALID,0.541016,
2012-09-19, 00:18:05,VALID,1010.37,VALID,0,VALID,104,VALID,0.112112,VALID,24.2378,VALID,34,VALID,0.266797,
2012-09-19, 00:19:05,VALID,1010.39,VALID,0,VALID,104,VALID,0.112112,VALID,24.2183,VALID,34,VALID,0.180469,
2012-09-19, 00:20:05,VALID,1010.39,VALID,0,VALID,104,VALID,0.112112,VALID,24.1988,VALID,34,VALID,0,
2012-09-19, 00:21:05,VALID,1010.36,VALID,0,VALID,104,VALID,0.112112,VALID,24.1793,VALID,34,VALID,0.157422,
2012-09-19, 00:22:05,VALID,1010.38,VALID,0,VALID,104,VALID,0.112112,VALID,24.1793,VALID,34,VALID,0.388672,
2012-09-19, 00:23:05,VALID,1010.35,VALID,0,VALID,104,VALID,0.112112,VALID,24.1599,VALID,34,VALID,0.310547,
2012-09-19, 00:24:05,VALID,1010.32,VALID,0,VALID,104,VALID,0.112112,VALID,24.1793,VALID,34,VALID,0.111719,
2012-09-19, 00:25:05,VALID,1010.31,VALID,0,VALID,104,VALID,0.112112,VALID,24.1793,VALID,34,VALID,0,
2012-09-19, 00:26:05,VALID,1010.28,VALID,0,VALID,104,VALID,0.112112,VALID,24.1793,VALID,34,VALID,0.360156,
2012-09-19, 00:27:05,VALID,1010.28,VALID,0,VALID,104,VALID,0.112112,VALID,24.1812,VALID,34,VALID,0.420312,
2012-09-19, 00:28:05,VALID,1010.26,VALID,0,VALID,104,VALID,0.112112,VALID,24.1599,VALID,34,VALID,0.678125,
2012-09-19, 00:29:05,VALID,1010.27,VALID,0,VALID,104,VALID,0.112112,VALID,24.1404,VALID,34,VALID,0.477344,
2012-09-19, 00:30:05,VALID,1010.23,VALID,0,VALID,104,VALID,0,VALID,24.1404,VALID,37,VALID,0.482812,
2012-09-19, 00:31:05,VALID,1010.2,VALID,0,VALID,104,VALID,0,VALID,24.1209,VALID,37,VALID,0.413672,
2012-09-19, 00:32:05,VALID,1010.19,VALID,0,VALID,104,VALID,0,VALID,24.1422,VALID,37,VALID,0.187109,
2012-09-19, 00:33:05,VALID,1010.17,VALID,0,VALID,104,VALID,0,VALID,24.1422,VALID,37,VALID,0.109375,
2012-09-19, 00:34:05,VALID,1010.16,VALID,0,VALID,104,VALID,0,VALID,24.1422,VALID,37,VALID,0.169531,
2012-09-19, 00:35:05,VALID,1010.11,VALID,0,VALID,104,VALID,0,VALID,24.1209,VALID,37,VALID,0.196484,
2012-09-19, 00:36:05,VALID,1010.11,VALID,0,VALID,104,VALID,0,VALID,24.1014,VALID,37,VALID,0.325781,
2012-09-19, 00:37:05,VALID,1010.08,VALID,0,VALID,104,VALID,0,VALID,24.1014,VALID,37,VALID,0.5125,
2012-09-19, 00:38:05,VALID,1010.06,VALID,0,VALID,104,VALID,0,VALID,24.1422,VALID,37,VALID,0.483594,
2012-09-19, 00:39:05,VALID,1010.03,VALID,0,VALID,104,VALID,0,VALID,24.1014,VALID,36,VALID,0.45625,
2012-09-19, 00:40:05,VALID,1010,VALID,0,VALID,104,VALID,0,VALID,24.1227,VALID,37,VALID,0.176953,
2012-09-19, 00:41:05,VALID,1009.97,VALID,0,VALID,104,VALID,0,VALID,24.1227,VALID,37,VALID,0,
2012-09-19, 00:42:05,VALID,1009.98,VALID,0,VALID,104,VALID,0.112112,VALID,24.1014,VALID,37,VALID,0.215234,
2012-09-19, 00:43:05,VALID,1009.96,VALID,0,VALID,104,VALID,0,VALID,24.1014,VALID,36,VALID,0.204688,
2012-09-19, 00:44:05,VALID,1009.95,VALID,0,VALID,104,VALID,0,VALID,24.1014,VALID,37,VALID,0.000390625,
2012-09-19, 00:45:05,VALID,1009.93,VALID,0,VALID,104,VALID,0,VALID,24.1014,VALID,37,VALID,0.00585938,
2012-09-19, 00:46:05,VALID,1009.93,VALID,0,VALID,104,VALID,0,VALID,24.1422,VALID,37,VALID,0,
2012-09-19, 00:47:05,VALID,1009.91,VALID,0,VALID,104,VALID,0,VALID,24.1032,VALID,37,VALID,0.194531,
2012-09-19, 00:48:05,VALID,1009.91,VALID,0,VALID,104,VALID,0,VALID,24.1227,VALID,37,VALID,0.290625,
2012-09-19, 00:49:05,VALID,1009.94,VALID,0,VALID,104,VALID,0,VALID,24.1014,VALID,37,VALID,0.339453,
2012-09-19, 00:50:05,VALID,1009.92,VALID,0,VALID,104,VALID,0,VALID,24.1227,VALID,37,VALID,0.461328,
2012-09-19, 00:51:05,VALID,1009.93,VALID,0,VALID,104,VALID,0,VALID,24.1014,VALID,37,VALID,0.203125,
2012-09-19, 00:52:05,VALID,1009.93,VALID,0,VALID,104,VALID,0,VALID,24.1032,VALID,37,VALID,0.205078,
2012-09-19, 00:53:05,VALID,1009.93,VALID,0,VALID,104,VALID,0,VALID,24.0819,VALID,37,VALID,0.00585938,
2012-09-19, 00:54:05,VALID,1009.92,VALID,0,VALID,104,VALID,0,VALID,24.0643,VALID,37,VALID,0,
2012-09-19, 00:55:05,VALID,1009.91,VALID,0,VALID,104,VALID,0,VALID,24.0429,VALID,37,VALID,0,
2012-09-19, 00:56:05,VALID,1009.9,VALID,0,VALID,104,VALID,0,VALID,24.0448,VALID,37,VALID,0,
2012-09-19, 00:57:05,VALID,1009.91,VALID,0,VALID,104,VALID,0,VALID,24.0253,VALID,37,VALID,0,
2012-09-19, 00:58:05,VALID,1009.86,VALID,0,VALID,104,VALID,0,VALID,24.004,VALID,37,VALID,0,
2012-09-19, 00:59:05,VALID,1009.85,VALID,0,VALID,104,VALID,0,VALID,24.0253,VALID,34,VALID,0,
2012-09-19, 01:00:05,VALID,1009.84,VALID,0,VALID,104,VALID,0,VALID,24.0253,VALID,30,VALID,0,
2012-09-19, 01:01:05,VALID,1009.8,VALID,0,VALID,104,VALID,0,VALID,24.004,VALID,30,VALID,0,
2012-09-19, 01:02:05,VALID,1009.74,VALID,0,VALID,104,VALID,0,VALID,24.0253,VALID,30,VALID,0,
2012-09-19, 01:03:05,VALID,1009.71,VALID,0,VALID,104,VALID,0,VALID,24.0253,VALID,30,VALID,0,
2012-09-19, 01:04:05,VALID,1009.66,VALID,0,VALID,104,VALID,0,VALID,24.0058,VALID,30,VALID,0,
2012-09-19, 01:05:05,VALID,1009.64,VALID,0,VALID,104,VALID,0,VALID,24.0253,VALID,30,VALID,0,
2012-09-19, 01:06:05,VALID,1009.64,VALID,0,VALID,104,VALID,0,VALID,24.0253,VALID,30,VALID,0,
2012-09-19, 01:07:05,VALID,1009.61,VALID,0,VALID,104,VALID,0,VALID,24.004,VALID,30,VALID,0,
2012-09-19, 01:08:05,VALID,1009.62,VALID,0,VALID,104,VALID,0,VALID,24.0253,VALID,30,VALID,0,
2012-09-19, 01:09:05,VALID,1009.63,VALID,0,VALID,104,VALID,0,VALID,24.0058,VALID,23,VALID,0.345703,
2012-09-19, 01:10:05,VALID,1009.6,VALID,0,VALID,104,VALID,0,VALID,24.004,VALID,19,VALID,0.591406,
2012-09-19, 01:11:05,VALID,1009.62,VALID,0,VALID,104,VALID,0.112112,VALID,24.004,VALID,18,VALID,0.269922,
2012-09-19, 01:12:05,VALID,1009.57,VALID,0,VALID,104,VALID,0,VALID,24.0253,VALID,18,VALID,0.251172,
2012-09-19, 01:13:05,VALID,1009.57,VALID,0,VALID,104,VALID,0,VALID,24.004,VALID,18,VALID,0.0578125,
2012-09-19, 01:14:05,VALID,1009.54,VALID,0,VALID,104,VALID,0,VALID,24.0253,VALID,18,VALID,0.0875,
2012-09-19, 01:15:05,VALID,1009.58,VALID,0,VALID,104,VALID,0,VALID,24.0253,VALID,18,VALID,0.232422,
2012-09-19, 01:16:05,VALID,1009.58,VALID,0,VALID,104,VALID,0,VALID,24.0235,VALID,18,VALID,0,
2012-09-19, 01:17:05,VALID,1009.57,VALID,0,VALID,104,VALID,0,VALID,24.0235,VALID,18,VALID,0.307031,
2012-09-19, 01:18:05,VALID,1009.58,VALID,0,VALID,104,VALID,0,VALID,24.0448,VALID,18,VALID,0.222656,
2012-09-19, 01:19:05,VALID,1009.62,VALID,0,VALID,104,VALID,0,VALID,24.0235,VALID,18,VALID,0,
2012-09-19, 01:20:05,VALID,1009.61,VALID,0,VALID,104,VALID,0,VALID,24.0253,VALID,18,VALID,0,
2012-09-19, 01:21:05,VALID,1009.61,VALID,0,VALID,104,VALID,0,VALID,24.0235,VALID,18,VALID,0,
2012-09-19, 01:22:05,VALID,1009.63,VALID,0,VALID,104,VALID,0.112112,VALID,24.0235,VALID,18,VALID,0,
2012-09-19, 01:23:05,VALID,1009.61,VALID,0,VALID,104,VALID,0.112112,VALID,24.0253,VALID,18,VALID,0,
2012-09-19, 01:24:05,VALID,1009.57,VALID,0,VALID,104,VALID,0,VALID,24.004,VALID,18,VALID,0.40625,
2012-09-19, 01:25:05,VALID,1009.52,VALID,0,VALID,104,VALID,0,VALID,24.0253,VALID,18,VALID,0,
2012-09-19, 01:26:05,VALID,1009.51,VALID,0,VALID,104,VALID,0,VALID,23.9845,VALID,18,VALID,0,
2012-09-19, 01:27:05,VALID,1009.48,VALID,0,VALID,104,VALID,0,VALID,24.004,VALID,18,VALID,0,
2012-09-19, 01:28:05,VALID,1009.48,VALID,0,VALID,104,VALID,0,VALID,23.9845,VALID,18,VALID,0.111719,
2012-09-19, 01:29:05,VALID,1009.47,VALID,0,VALID,104,VALID,0,VALID,24.0058,VALID,18,VALID,0.252734,
2012-09-19, 01:30:05,VALID,1009.43,VALID,0,VALID,104,VALID,0,VALID,24.0058,VALID,18,VALID,0,
2012-09-19, 01:31:05,VALID,1009.41,VALID,0,VALID,104,VALID,0,VALID,23.9845,VALID,18,VALID,0,
2012-09-19, 01:32:05,VALID,1009.4,VALID,0,VALID,104,VALID,0,VALID,24.0058,VALID,18,VALID,0.254297,
2012-09-19, 01:33:05,VALID,1009.38,VALID,0,VALID,104,VALID,0,VALID,24.0058,VALID,18,VALID,0,
2012-09-19, 01:34:05,VALID,1009.39,VALID,0,VALID,104,VALID,0,VALID,24.004,VALID,18,VALID,0.00429688,
2012-09-19, 01:35:05,VALID,1009.4,VALID,0,VALID,104,VALID,0,VALID,24.0253,VALID,18,VALID,0,
2012-09-19, 01:36:05,VALID,1009.45,VALID,0,VALID,104,VALID,0,VALID,24.004,VALID,18,VALID,0,
2012-09-19, 01:37:05,VALID,1009.45,VALID,0,VALID,104,VALID,0.112112,VALID,24.004,VALID,18,VALID,0,
2012-09-19, 01:38:05,VALID,1009.46,VALID,0,VALID,104,VALID,0,VALID,24.0058,VALID,18,VALID,0,
2012-09-19, 01:39:05,VALID,1009.48,VALID,0,VALID,104,VALID,0,VALID,24.0253,VALID,18,VALID,0,
2012-09-19, 01:40:05,VALID,1009.48,VALID,0,VALID,104,VALID,0.112112,VALID,24.004,VALID,18,VALID,0,
2012-09-19, 01:41:05,VALID,1009.45,VALID,0,VALID,104,VALID,0.112112,VALID,24.004,VALID,18,VALID,0,
2012-09-19, 01:42:05,VALID,1009.39,VALID,0,VALID,104,VALID,0,VALID,24.004,VALID,18,VALID,0,
2012-09-19, 01:43:05,VALID,1009.39,VALID,0,VALID,104,VALID,0,VALID,24.004,VALID,18,VALID,0,
2012-09-19, 01:44:05,VALID,1009.33,VALID,0,VALID,104,VALID,0,VALID,24.004,VALID,18,VALID,0,
2012-09-19, 01:45:05,VALID,1009.31,VALID,0,VALID,104,VALID,0,VALID,24.004,VALID,332,VALID,0.975,
2012-09-19, 01:46:05,VALID,1009.3,VALID,0,VALID,104,VALID,0.112112,VALID,24.0058,VALID,336,VALID,0.206641,
2012-09-19, 01:47:05,VALID,1009.32,VALID,0,VALID,104,VALID,0,VALID,24.0253,VALID,336,VALID,0.494531,
2012-09-19, 01:48:05,VALID,1009.29,VALID,0,VALID,104,VALID,0,VALID,24.0448,VALID,336,VALID,0.515625,
2012-09-19, 01:49:05,VALID,1009.28,VALID,0,VALID,104,VALID,0,VALID,24.0448,VALID,356,VALID,0.649609,
2012-09-19, 01:50:05,VALID,1009.25,VALID,0,VALID,104,VALID,0,VALID,24.0643,VALID,354,VALID,0.509766,
2012-09-19, 01:51:05,VALID,1009.22,VALID,0,VALID,104,VALID,0,VALID,24.0624,VALID,334,VALID,0.382031,
2012-09-19, 01:52:05,VALID,1009.19,VALID,0,VALID,104,VALID,0,VALID,24.0819,VALID,334,VALID,0.15,
2012-09-19, 01:53:05,VALID,1009.15,VALID,0,VALID,104,VALID,0,VALID,24.0837,VALID,334,VALID,0.316016,
2012-09-19, 01:54:05,VALID,1009.16,VALID,0,VALID,104,VALID,0,VALID,24.0837,VALID,338,VALID,0.834375,
2012-09-19, 01:55:05,VALID,1009.13,VALID,0,VALID,104,VALID,0,VALID,24.0643,VALID,340,VALID,0.362109,
2012-09-19, 01:56:05,VALID,1009.13,VALID,0,VALID,104,VALID,0,VALID,24.0837,VALID,340,VALID,0.591406,
2012-09-19, 01:57:05,VALID,1009.12,VALID,0,VALID,104,VALID,0,VALID,24.0624,VALID,340,VALID,0.347266,
2012-09-19, 01:58:05,VALID,1009.13,VALID,0,VALID,104,VALID,0,VALID,24.0624,VALID,331,VALID,0.5625,
2012-09-19, 01:59:05,VALID,1009.08,VALID,0,VALID,104,VALID,0,VALID,24.0819,VALID,298,VALID,0.444922,
2012-09-19, 02:00:05,VALID,1009.09,VALID,0,VALID,104,VALID,0.112112,VALID,24.1014,VALID,43,VALID,1.07344,
2012-09-19, 02:01:05,VALID,1009.07,VALID,0,VALID,104,VALID,0,VALID,24.1014,VALID,42,VALID,0.247266,
2012-09-19, 02:02:05,VALID,1009.08,VALID,0,VALID,104,VALID,0,VALID,24.1209,VALID,42,VALID,0.287891,
2012-09-19, 02:03:05,VALID,1009.06,VALID,0,VALID,103.985,VALID,0,VALID,24.1422,VALID,42,VALID,0.203125,
2012-09-19, 02:04:05,VALID,1009.08,VALID,0,VALID,103.916,VALID,0.112112,VALID,24.1422,VALID,42,VALID,0.244531,
2012-09-19, 02:05:05,VALID,1009.09,VALID,0,VALID,103.87,VALID,0.112112,VALID,24.1422,VALID,42,VALID,0.166406,
2012-09-19, 02:06:05,VALID,1009.11,VALID,0,VALID,103.909,VALID,0,VALID,24.1422,VALID,42,VALID,0.301172,
2012-09-19, 02:07:05,VALID,1009.1,VALID,0,VALID,103.893,VALID,0,VALID,24.1209,VALID,42,VALID,0.362109,
2012-09-19, 02:08:05,VALID,1009.12,VALID,0,VALID,103.901,VALID,0,VALID,24.1209,VALID,25,VALID,0.301562,
2012-09-19, 02:09:05,VALID,1009.1,VALID,0,VALID,103.97,VALID,0,VALID,24.1422,VALID,25,VALID,0.483594,
2012-09-19, 02:10:05,VALID,1009.12,VALID,0,VALID,103.962,VALID,0.112112,VALID,24.1014,VALID,25,VALID,0.0871094,
2012-09-19, 02:11:05,VALID,1009.12,VALID,0,VALID,103.924,VALID,0,VALID,24.1227,VALID,32,VALID,0.478906,
2012-09-19, 02:12:05,VALID,1009.13,VALID,0,VALID,103.939,VALID,0,VALID,24.0819,VALID,32,VALID,0.416016,
2012-09-19, 02:13:05,VALID,1009.13,VALID,0,VALID,103.779,VALID,0,VALID,24.0819,VALID,48,VALID,0.389844,
2012-09-19, 02:14:05,VALID,1009.13,VALID,0,VALID,103.764,VALID,0.112112,VALID,24.0819,VALID,48,VALID,0.591797,
2012-09-19, 02:15:05,VALID,1009.11,VALID,0,VALID,103.733,VALID,0,VALID,24.0819,VALID,37,VALID,0.678906,
2012-09-19, 02:16:05,VALID,1009.12,VALID,0,VALID,103.863,VALID,0,VALID,24.1032,VALID,37,VALID,0.746094,
2012-09-19, 02:17:05,VALID,1009.12,VALID,0,VALID,103.817,VALID,0,VALID,24.0819,VALID,36,VALID,0.936328,
2012-09-19, 02:18:05,VALID,1009.09,VALID,0,VALID,103.817,VALID,0.112112,VALID,24.0819,VALID,36,VALID,0.608984,
2012-09-19, 02:19:05,VALID,1009.09,VALID,0,VALID,103.916,VALID,0,VALID,24.0819,VALID,41,VALID,0.644922,
2012-09-19, 02:20:05,VALID,1009.09,VALID,0,VALID,103.97,VALID,0.112112,VALID,24.1032,VALID,42,VALID,0.120703,
2012-09-19, 02:21:05,VALID,1009.08,VALID,0,VALID,104,VALID,0,VALID,24.1032,VALID,42,VALID,0.332422,
2012-09-19, 02:22:05,VALID,1009.09,VALID,0,VALID,104,VALID,0,VALID,24.0837,VALID,42,VALID,0.214062,
2012-09-19, 02:23:05,VALID,1009.07,VALID,0,VALID,104,VALID,0.112112,VALID,24.0624,VALID,42,VALID,0,
2012-09-19, 02:24:05,VALID,1009.02,VALID,0,VALID,104,VALID,0.112112,VALID,24.0624,VALID,42,VALID,0.116016,
2012-09-19, 02:25:05,VALID,1008.98,VALID,0,VALID,104,VALID,0.112112,VALID,24.0429,VALID,42,VALID,0,
2012-09-19, 02:26:05,VALID,1008.95,VALID,0,VALID,104,VALID,0.112112,VALID,24.0429,VALID,42,VALID,0.199609,
2012-09-19, 02:27:05,VALID,1008.92,VALID,0,VALID,103.863,VALID,0,VALID,24.0235,VALID,58,VALID,1.13594,
2012-09-19, 02:28:05,VALID,1008.89,VALID,0,VALID,103.817,VALID,0.112112,VALID,24.0624,VALID,61,VALID,0.41875,
2012-09-19, 02:29:05,VALID,1008.88,VALID,0,VALID,103.848,VALID,0,VALID,24.0624,VALID,61,VALID,0.245312,
2012-09-19, 02:30:05,VALID,1008.85,VALID,0,VALID,103.817,VALID,0,VALID,24.0643,VALID,61,VALID,0.397266,
2012-09-19, 02:31:05,VALID,1008.83,VALID,0,VALID,103.733,VALID,0,VALID,24.0643,VALID,61,VALID,0.397656,
2012-09-19, 02:32:05,VALID,1008.84,VALID,0,VALID,103.794,VALID,0,VALID,24.0448,VALID,61,VALID,0,
2012-09-19, 02:33:05,VALID,1008.83,VALID,0,VALID,103.909,VALID,0.112112,VALID,24.0643,VALID,61,VALID,0,
2012-09-19, 02:34:05,VALID,1008.85,VALID,0,VALID,103.916,VALID,0,VALID,24.0235,VALID,61,VALID,0,
2012-09-19, 02:35:05,VALID,1008.85,VALID,0,VALID,103.886,VALID,0.112112,VALID,24.0448,VALID,61,VALID,0.167969,
2012-09-19, 02:36:05,VALID,1008.88,VALID,0,VALID,103.863,VALID,0.112112,VALID,24.0235,VALID,61,VALID,0.139453,
2012-09-19, 02:37:05,VALID,1008.87,VALID,0,VALID,103.809,VALID,0.112112,VALID,24.004,VALID,61,VALID,0,
2012-09-19, 02:38:05,VALID,1008.89,VALID,0,VALID,103.84,VALID,0.112112,VALID,23.9845,VALID,61,VALID,0,
2012-09-19, 02:39:05,VALID,1008.93,VALID,0,VALID,103.825,VALID,0,VALID,23.9845,VALID,61,VALID,0,
2012-09-19, 02:40:05,VALID,1008.94,VALID,0,VALID,103.87,VALID,0,VALID,23.9845,VALID,61,VALID,0,
2012-09-19, 02:41:05,VALID,1008.94,VALID,0,VALID,103.924,VALID,0.112112,VALID,23.965,VALID,61,VALID,0,
2012-09-19, 02:42:05,VALID,1008.94,VALID,0,VALID,104,VALID,0,VALID,23.965,VALID,61,VALID,0,
2012-09-19, 02:43:05,VALID,1008.93,VALID,0,VALID,104,VALID,0.112112,VALID,23.965,VALID,61,VALID,0,
2012-09-19, 02:44:05,VALID,1008.91,VALID,0,VALID,104,VALID,0,VALID,23.9863,VALID,61,VALID,0,
2012-09-19, 02:45:05,VALID,1008.89,VALID,0,VALID,104,VALID,0.112112,VALID,23.9845,VALID,61,VALID,0,
2012-09-19, 02:46:05,VALID,1008.87,VALID,0,VALID,104,VALID,0,VALID,24.0058,VALID,61,VALID,0,
2012-09-19, 02:47:05,VALID,1008.85,VALID,0,VALID,104,VALID,0.112112,VALID,24.004,VALID,61,VALID,0,
2012-09-19, 02:48:04,VALID,1008.85,VALID,0,VALID,104,VALID,0,VALID,24.0448,VALID,61,VALID,0.367188,
2012-09-19, 02:49:04,VALID,1008.84,VALID,0,VALID,103.985,VALID,0,VALID,24.0429,VALID,38,VALID,0.238281,
2012-09-19, 02:50:04,VALID,1008.82,VALID,0,VALID,103.893,VALID,0,VALID,24.0837,VALID,38,VALID,0.01875,
2012-09-19, 02:51:04,VALID,1008.81,VALID,0,VALID,103.848,VALID,0,VALID,24.0837,VALID,38,VALID,0.110547,
2012-09-19, 02:52:04,VALID,1008.81,VALID,0,VALID,103.733,VALID,0,VALID,24.0819,VALID,38,VALID,0.309766,
2012-09-19, 02:53:04,VALID,1008.83,VALID,0,VALID,103.68,VALID,0,VALID,24.0837,VALID,38,VALID,0.486719,
2012-09-19, 02:54:04,VALID,1008.83,VALID,0,VALID,103.756,VALID,0,VALID,24.0624,VALID,38,VALID,0.694531,
2012-09-19, 02:55:04,VALID,1008.89,VALID,0,VALID,103.809,VALID,0.112112,VALID,24.0624,VALID,38,VALID,0.650391,
2012-09-19, 02:56:04,VALID,1008.96,VALID,0,VALID,103.863,VALID,0.112112,VALID,24.0624,VALID,38,VALID,0.591016,
2012-09-19, 02:57:04,VALID,1008.98,VALID,0,VALID,103.901,VALID,0.112112,VALID,24.0235,VALID,38,VALID,0.440234,
2012-09-19, 02:58:04,VALID,1009.05,VALID,0,VALID,103.962,VALID,0.112112,VALID,23.9845,VALID,38,VALID,0.477734,
2012-09-19, 02:59:04,VALID,1009.08,VALID,0,VALID,104,VALID,0,VALID,23.9455,VALID,38,VALID,0.310547,
2012-09-19, 03:00:04,VALID,1009.1,VALID,0,VALID,104,VALID,0,VALID,23.9473,VALID,38,VALID,0.132813,
2012-09-19, 03:01:04,VALID,1009.1,VALID,0,VALID,104,VALID,0,VALID,23.9473,VALID,38,VALID,0.278906,
2012-09-19, 03:02:04,VALID,1009.16,VALID,0,VALID,104,VALID,0.112112,VALID,23.9084,VALID,38,VALID,0.222266,
2012-09-19, 03:03:04,VALID,1009.15,VALID,0,VALID,104,VALID,0,VALID,23.8889,VALID,38,VALID,0.0863281,
2012-09-19, 03:04:04,VALID,1009.18,VALID,0,VALID,104,VALID,0,VALID,23.8676,VALID,38,VALID,0.2375,
2012-09-19, 03:05:04,VALID,1009.19,VALID,0,VALID,104,VALID,0.112112,VALID,23.8676,VALID,40,VALID,0.6625,
2012-09-19, 03:06:04,VALID,1009.18,VALID,0,VALID,104,VALID,0,VALID,23.8481,VALID,43,VALID,0.537109,
2012-09-19, 03:07:04,VALID,1009.18,VALID,0,VALID,104,VALID,0,VALID,23.8286,VALID,48,VALID,0.25,
2012-09-19, 03:08:04,VALID,1009.16,VALID,0,VALID,104,VALID,0,VALID,23.8481,VALID,56,VALID,0.880078,
2012-09-19, 03:09:04,VALID,1009.18,VALID,0,VALID,104,VALID,0.112112,VALID,23.8481,VALID,50,VALID,0.694141,
2012-09-19, 03:10:04,VALID,1009.21,VALID,0,VALID,104,VALID,0,VALID,23.8481,VALID,37,VALID,0.437109,
2012-09-19, 03:11:04,VALID,1009.22,VALID,0,VALID,104,VALID,0,VALID,23.8889,VALID,37,VALID,0.341016,
2012-09-19, 03:12:04,VALID,1009.22,VALID,0,VALID,104,VALID,0,VALID,23.8676,VALID,37,VALID,0.497656,
2012-09-19, 03:13:04,VALID,1009.24,VALID,0,VALID,104,VALID,0,VALID,23.9084,VALID,37,VALID,0.009375,
2012-09-19, 03:14:04,VALID,1009.22,VALID,0,VALID,104,VALID,0,VALID,23.8871,VALID,37,VALID,0.523828,
2012-09-19, 03:15:04,VALID,1009.27,VALID,0,VALID,104,VALID,0,VALID,23.8676,VALID,40,VALID,0.775391,
2012-09-19, 03:16:04,VALID,1009.27,VALID,0,VALID,104,VALID,0.112112,VALID,23.8871,VALID,40,VALID,0.917969,
2012-09-19, 03:17:04,VALID,1009.28,VALID,0,VALID,104,VALID,0,VALID,23.8871,VALID,51,VALID,0.583203,
2012-09-19, 03:18:04,VALID,1009.28,VALID,0,VALID,104,VALID,0.112112,VALID,23.8871,VALID,51,VALID,0.382422,
2012-09-19, 03:19:04,VALID,1009.34,VALID,0,VALID,104,VALID,0,VALID,23.9065,VALID,51,VALID,0.353516,
2012-09-19, 03:20:04,VALID,1009.33,VALID,0,VALID,104,VALID,0,VALID,23.9065,VALID,51,VALID,0.285156,
2012-09-19, 03:21:04,VALID,1009.33,VALID,0,VALID,104,VALID,0,VALID,23.9065,VALID,51,VALID,0.329688,
2012-09-19, 03:22:04,VALID,1009.35,VALID,0,VALID,104,VALID,0.112112,VALID,23.926,VALID,51,VALID,0.430469,
2012-09-19, 03:23:04,VALID,1009.36,VALID,0,VALID,104,VALID,0.112112,VALID,23.9278,VALID,51,VALID,0.214844,
2012-09-19, 03:24:04,VALID,1009.37,VALID,0,VALID,104,VALID,0,VALID,23.9278,VALID,51,VALID,0.480078,
2012-09-19, 03:25:04,VALID,1009.38,VALID,0,VALID,104,VALID,0.112112,VALID,23.9065,VALID,51,VALID,0.338281,
2012-09-19, 03:26:04,VALID,1009.4,VALID,0,VALID,104,VALID,0.112112,VALID,23.9065,VALID,52,VALID,0.609766,
2012-09-19, 03:27:04,VALID,1009.41,VALID,0,VALID,104,VALID,0.112112,VALID,23.9065,VALID,51,VALID,0.952734,
2012-09-19, 03:28:04,VALID,1009.43,VALID,0,VALID,104,VALID,0.112112,VALID,23.9278,VALID,58,VALID,0.638672,
2012-09-19, 03:29:04,VALID,1009.44,VALID,0,VALID,104,VALID,0.112112,VALID,23.9065,VALID,77,VALID,0.635156,
2012-09-19, 03:30:04,VALID,1009.43,VALID,0,VALID,104,VALID,0.112112,VALID,23.9065,VALID,69,VALID,0.462891,
2012-09-19, 03:31:04,VALID,1009.42,VALID,0,VALID,104,VALID,0.112112,VALID,23.9278,VALID,68,VALID,0.516797,
2012-09-19, 03:32:04,VALID,1009.41,VALID,0,VALID,104,VALID,0,VALID,23.926,VALID,68,VALID,0.242188,
2012-09-19, 03:33:04,VALID,1009.37,VALID,0,VALID,104,VALID,0.112112,VALID,23.9473,VALID,68,VALID,0.249609,
2012-09-19, 03:34:04,VALID,1009.35,VALID,0,VALID,104,VALID,0,VALID,23.9473,VALID,68,VALID,0.557813,
2012-09-19, 03:35:04,VALID,1009.35,VALID,0,VALID,104,VALID,0.112112,VALID,23.9065,VALID,67,VALID,0.123828,
2012-09-19, 03:36:04,VALID,1009.34,VALID,0,VALID,104,VALID,0,VALID,23.926,VALID,62,VALID,0.701563,
2012-09-19, 03:37:04,VALID,1009.34,VALID,0,VALID,104,VALID,0.112112,VALID,23.9278,VALID,56,VALID,0.596484,
2012-09-19, 03:38:04,VALID,1009.33,VALID,0,VALID,104,VALID,0.112112,VALID,23.926,VALID,56,VALID,0.566797,
2012-09-19, 03:39:04,VALID,1009.32,VALID,0,VALID,104,VALID,0,VALID,23.926,VALID,56,VALID,0,
2012-09-19, 03:40:04,VALID,1009.29,VALID,0,VALID,104,VALID,0.112112,VALID,23.926,VALID,56,VALID,0.455859,
2012-09-19, 03:41:04,VALID,1009.29,VALID,0,VALID,104,VALID,0,VALID,23.9668,VALID,56,VALID,0.273828,
2012-09-19, 03:42:04,VALID,1009.27,VALID,0,VALID,104,VALID,0.112112,VALID,23.965,VALID,56,VALID,0.130859,
2012-09-19, 03:43:04,VALID,1009.3,VALID,0,VALID,104,VALID,0,VALID,23.9863,VALID,56,VALID,0.209766,
2012-09-19, 03:44:04,VALID,1009.26,VALID,0,VALID,104,VALID,0,VALID,23.9845,VALID,56,VALID,0.471484,
2012-09-19, 03:45:04,VALID,1009.25,VALID,0,VALID,104,VALID,0.112112,VALID,23.9845,VALID,75,VALID,0.801562,
2012-09-19, 03:46:04,VALID,1009.26,VALID,0,VALID,104,VALID,0.112112,VALID,23.9845,VALID,68,VALID,0.476172,
2012-09-19, 03:47:04,VALID,1009.25,VALID,0,VALID,104,VALID,0,VALID,24.0058,VALID,68,VALID,0.528906,
2012-09-19, 03:48:04,VALID,1009.21,VALID,0,VALID,104,VALID,0,VALID,23.9845,VALID,74,VALID,0.664844,
2012-09-19, 03:49:04,VALID,1009.19,VALID,0,VALID,104,VALID,0,VALID,23.9845,VALID,103,VALID,0.669922,
2012-09-19, 03:50:04,VALID,1009.17,VALID,0,VALID,104,VALID,0.112112,VALID,23.9845,VALID,100,VALID,0.571875,
2012-09-19, 03:51:04,VALID,1009.14,VALID,0,VALID,104,VALID,0.112112,VALID,24.004,VALID,73,VALID,0.399219,